Regional Weather Roundup
Issued by NWS Jackson, KY

Home | Current Version | Previous Version | Text Only | Print | Product List | Glossary Off
Versions: 1 2 3 4 5 6 7 8 9 10 11 12 13 14 15 16 17 18 19 20 21 22 23 24 25 26 27 28 29 30 31 32 33 34 35 36 37 38 39 40 41 42 43 44 45 46 47 48 49 50

000
ASUS43 KJKL 311705
RWRJKL

EAST KENTUCKY HOURLY WEATHER ROUNDUP
NATIONAL WEATHER SERVICE JACKSON KY
100 PM EDT THU JUL 31 2014

NOTE: "FAIR" INDICATES FEW OR NO CLOUDS BELOW 12,000 FEET WITH
NO SIGNIFICANT WEATHER AND/OR OBSTRUCTIONS TO VISIBILITY.

* THESE REPORTS ARE NOT UNDER NWS QUALITY CONTROL AND MAY NOT
  REPORT WEATHER SUCH AS PRECIPITATION AND FOG.

KYZ079-080-083-085-087-088-110-112-115-119-120-311800
...EASTERN KENTUCKY...

CITY           SKY/WX    TMP DP  RH WIND       PRES   REMARKS
JACKSON        MOSUNNY   77  55  46 VRB3      30.15S
LONDON         MOSUNNY   78  57  48 SW3       30.15S
SOMERSET*      SUNNY     77  55  47 E5        30.14F
MONTICELLO*    MOSUNNY   80  59  48 S5        30.14F
WILLIAMSBURG*  MOSUNNY   77  59  53 CALM      30.14F
MIDDLESBORO*   MOSUNNY   77  62  60 CALM      30.14F
HARLAN APT*    PTSUNNY   77  55  47 MISG      30.15F
BLACK MTN*       N/A     70  57  64 SW2         N/A
PIKEVILLE APT* SUNNY     75  59  57 S5        30.15S
BIG SANDY*     SUNNY     78  58  49 S3        30.14F
MOREHEAD APT*    N/A     77  59  53 SW9       30.15F
$$

KYZ035-036-041-042-044-050-067-078-099-311800
...CENTRAL KENTUCKY...

CITY           SKY/WX    TMP DP  RH WIND       PRES   REMARKS
MT STERLING*   MOSUNNY   77  59  53 CALM      30.15S
FLEMING/MASON* SUNNY     79  60  52 W3        30.13S
DANVILLE*      SUNNY     79  59  50 S3        30.14S
RICHMOND*      SUNNY     79  57  47 CALM      30.13S
LEXINGTON      SUNNY     80  57  45 VRB6      30.13S
FRANKFORT      SUNNY     79  57  46 SW7       30.11F
$$

KYZ091>093-OHZ055-061-077-WVZ005-015-034-035-042-311800
...SOUTHERN OHIO/WEST VIRGINIA...

CITY           SKY/WX    TMP DP  RH WIND       PRES   REMARKS
COVINGTON      MOSUNNY   79  59  50 W9        30.11S
COLUMBUS       MOSUNNY   80  58  46 W9G18     30.09S
DAYTON         MOSUNNY   81  58  45 W10       30.11S
WILMINGTON     MOSUNNY   78  61  55 W12       30.11S
HUNTINGTON     SUNNY     78  61  55 S8        30.11F
PINEVILLE*     MOSUNNY   79  60  51 MISG      30.21S
BECKLEY        SUNNY     74  50  42 SW8       30.20S
BLUEFIELD      PTSUNNY   75  53  46 VRB6      30.22S
$$

VAZ002-007-008-TNZ017-027-036-066-071-311800
...SOUTHWEST VIRGINIA/EAST TENNESSEE...

CITY           SKY/WX    TMP DP  RH WIND       PRES   REMARKS
WISE*          PTSUNNY   73  52  46 E5        30.21F
JONESVILLE*    PTSUNNY   77  55  47 CALM      30.17S
ABINGDON*      PTSUNNY   76  58  53 CALM      30.18S
BRISTOL        PTSUNNY   76  58  53 CALM      30.15F
KNOXVILLE      CLOUDY    74  61  63 E5        30.12F
OAK RIDGE      CLOUDY    76  62  62 VRB3      30.14S
CROSSVILLE     PTSUNNY   75  57  53 CALM      30.16F
NASHVILLE      PTSUNNY   80  59  48 SE5       30.11F
$$

...KEY TO REMARKS...
VSB - VISIBILITY IN MILES
WCI - WIND CHILL INDEX
HX  - HEAT INDEX

$$


USA.gov is the U.S. government's official web portal to all federal, state and local government web resources and services.